This demonstration page uses our WeatherBlox Daily Observations layout. Learn more.

Left ArrowRight Arrow

Hourly Observations for January 1, 2016

Temp ( °F °C ) Dew Point ( °F °C ) Humidity (%) Winds ( mph kmh ) Pressure ( in mb ) Visibility ( mi km ) Precip ( " mm )
12:51 am 00:51 Partly Cloudy 44 6.7 31 -0.6 60 60 SE 8 13 30.06 1018 10 16 N/A
1:51 am 01:51 Clear 42 5.6 32 undefined 68 68 SE 10 17 30.06 1018 10 16 N/A
2:51 am 02:51 Clear 42 5.6 31 -0.6 65 65 ESE 8 13 30.06 1018 10 16 N/A
3:51 am 03:51 Clear 42 5.6 31 -0.6 65 65 SE 9 15 30.09 1019 10 16 N/A
4:51 am 04:51 Clear 41 5 30 -1.1 65 65 SE 9 15 30.11 1020 10 16 N/A
5:51 am 05:51 Clear 41 5 30 -1.1 65 65 SE 9 15 30.14 1021 10 16 N/A
6:51 am 06:51 Mostly Cloudy 40 4.4 30 -1.1 68 68 SE 8 13 30.18 1022 10 16 N/A
7:51 am 07:51 Cloudy 42 5.6 30 -1.1 62 62 SE 9 15 30.20 1023 10 16 N/A
8:51 am 08:51 Cloudy 44 6.7 31 -0.6 60 60 SSE 9 15 30.22 1023 10 16 N/A
9:22 am 09:22 Cloudy with Haze 45 7.2 31 -0.6 58 58 SSE 12 19 30.24 1024 2 3 N/A
9:32 am 09:32 Cloudy 45 7.2 31 -0.6 58 58 S 12 19 30.27 1025 10 16 N/A
9:51 am 09:51 Cloudy 46 7.8 31 -0.6 56 56 S 13 20 30.24 1024 10 16 N/A
10:51 am 10:51 Cloudy 49 9.4 31 -0.6 50 50 SSE 13 20 30.23 1024 10 16 N/A
11:51 am 11:51 Cloudy 50 10 31 -0.6 48 48 SSE 16 26 30.22 1023 10 16 N/A
12:51 pm 12:51 Cloudy 51 10.6 31 -0.6 46 46 SSE 18 30 30.18 1022 10 16 N/A
1:51 pm 13:51 Cloudy 51 10.6 31 -0.6 46 46 SSE 13 20 30.19 1022 10 16 N/A
2:51 pm 14:51 Cloudy 51 10.6 31 -0.6 46 46 SSE 14 22 30.19 1022 10 16 N/A
3:51 pm 15:51 Cloudy 50 10 31 -0.6 48 48 SSE 14 22 30.21 1023 10 16 N/A
4:51 pm 16:51 Cloudy 49 9.4 31 -0.6 50 50 ESE 13 20 30.22 1023 10 16 N/A
5:51 pm 17:51 Cloudy 47 8.3 30 -1.1 52 52 SE 14 22 30.24 1024 10 16 N/A
6:51 pm 18:51 Cloudy 46 7.8 30 -1.1 54 54 SE 14 22 30.27 1025 10 16 N/A
7:51 pm 19:51 Cloudy 45 7.2 30 -1.1 56 56 SE 13 20 30.27 1025 10 16 N/A
8:51 pm 20:51 Cloudy 45 7.2 31 -0.6 58 58 SE 13 20 30.28 1025 10 16 N/A
9:51 pm 21:51 Cloudy 44 6.7 31 -0.6 60 60 SE 8 13 30.29 1026 10 16 N/A
10:51 pm 22:51 Cloudy 43 6.1 31 -0.6 63 63 S 9 15 30.29 1026 10 16 N/A
11:51 pm 23:51 Cloudy 44 6.7 31 -0.6 60 60 SE 12 19 30.28 1025 10 16 N/A

Powered by AerisWeather